Weather History for Freeport, IL

Change the Weather History Date:

Saturday, May 5, 2012

  Actual Average Record
Temperature  
Mean Temperature 62 °F -  
Max Temperature 69 °F 66 °F 86 °F (1980)
Min Temperature 54 °F 46 °F 33 °F (1987)
Degree Days  
Heating Degree Days 4    
Growing Degree Days 12 (Base 50)    
Moisture  
Dew Point 55 °F    
Average Humidity 85    
Maximum Humidity 91    
Minimum Humidity 72    
Precipitation  
Precipitation 0.00 in - - ()
Sea Level Pressure  
Sea Level Pressure 30.02 in    
Wind  
Wind Speed 9 mph (NE)    
Max Wind Speed 17 mph    
Max Gust Speed 22 mph    
Visibility 7 miles    
Events      
Averages and records for this station are not official NWS values.
T = Trace of Precipitation, MM = Missing Value Source: NWS Daily Summary

Daily Weather History Graph

Daily Weather History Graph

Search for Another Location

Airport:

Trip Planner

Search our weather history database for the weather conditions in past years. The results will help you decide how hot, cold, wet, or windy it might be!

Date:

Astronomy

May. 05, 2012 Rise Set
Actual Time 5:47 AM CDT 8:02 PM CDT
Civil Twilight 5:16 AM CDT 8:33 PM CDT
Nautical Twilight 4:38 AM CDT 9:12 PM CDT
Astronomical Twilight 3:56 AM CDT 9:54 PM CDT
Moon 7:55 PM CDT (5/5) 5:10 AM CDT (5/5)
Length of Visible Light 15h 16m
Length of Day
14h 14m
Full, 100% of the Moon is Illuminated
May 5
Full
May 5
Full
May 12
Last Quarter
May 20
New
May 28
First Quarter

Hourly Weather History & Observations

Time (CDT) Temp. Dew Point Humidity Pressure Visibility Wind Dir Wind Speed Gust Speed Precip Events Conditions
12:15 AM 57.2 °F 52.7 °F 85% 29.99 in 10.0 mi NNE 10.4 mph - N/A   Overcast
12:35 AM 57.2 °F 52.2 °F 83% 29.98 in 10.0 mi NE 8.1 mph - N/A   Overcast
12:55 AM 57.2 °F 52.0 °F 83% 29.98 in 10.0 mi NNE 8.1 mph - N/A   Overcast
1:15 AM 57.2 °F 51.8 °F 82% 29.99 in 10.0 mi North 5.8 mph - N/A   Overcast
1:35 AM 57.2 °F 51.8 °F 82% 29.99 in 10.0 mi North 6.9 mph - N/A   Overcast
1:55 AM 57.2 °F 51.8 °F 82% 29.97 in 10.0 mi NE 6.9 mph - N/A   Overcast
2:15 AM 57.2 °F 51.8 °F 82% 29.96 in 10.0 mi ENE 9.2 mph - N/A   Overcast
2:35 AM 57.2 °F 52.0 °F 83% 29.97 in 10.0 mi ENE 9.2 mph - N/A   Overcast
2:55 AM 57.2 °F 52.2 °F 83% 29.96 in 10.0 mi East 6.9 mph - N/A   Overcast
3:15 AM 57.2 °F 52.7 °F 85% 29.96 in 10.0 mi ESE 5.8 mph - N/A   Overcast
3:35 AM 57.2 °F 53.6 °F 88% 29.98 in 10.0 mi East 9.2 mph - N/A   Overcast
3:55 AM 57.2 °F 54.0 °F 89% 29.99 in 7.0 mi East 6.9 mph - N/A   Overcast
4:15 AM 57.2 °F 54.1 °F 89% 30.00 in 5.0 mi ENE 4.6 mph - N/A   Overcast
4:35 AM 57.2 °F 54.1 °F 89% 30.00 in 5.0 mi ENE 4.6 mph - N/A   Overcast
4:55 AM 57.2 °F 53.8 °F 88% 29.99 in 7.0 mi NE 5.8 mph - N/A   Overcast
5:15 AM 57.2 °F 54.0 °F 89% 30.00 in 7.0 mi NNE 5.8 mph - N/A   Overcast
5:35 AM 57.2 °F 53.6 °F 88% 30.00 in 7.0 mi NE 6.9 mph - N/A   Overcast
5:55 AM 57.2 °F 53.8 °F 88% 30.00 in 7.0 mi NE 6.9 mph - N/A   Overcast
6:15 AM 57.2 °F 54.0 °F 89% 30.01 in 5.0 mi NE 8.1 mph - N/A   Overcast
6:35 AM 57.2 °F 54.5 °F 91% 30.01 in 4.0 mi NNE 10.4 mph - N/A   Overcast
6:55 AM 57.2 °F 54.7 °F 91% 30.02 in 2.0 mi NE 10.4 mph - N/A   Overcast
7:15 AM 57.2 °F 54.7 °F 91% 30.01 in 2.0 mi NE 9.2 mph - N/A   Overcast
7:35 AM 57.2 °F 54.7 °F 91% 30.01 in 3.0 mi ENE 10.4 mph - N/A   Overcast
7:55 AM 57.2 °F 54.7 °F 91% 30.01 in 1.8 mi NE 9.2 mph - N/A   Overcast
8:15 AM 57.2 °F 54.7 °F 91% 30.02 in 3.0 mi ENE 10.4 mph - N/A   Overcast
8:35 AM 57.2 °F 54.5 °F 91% 30.03 in 4.0 mi ENE 8.1 mph - N/A   Overcast
8:55 AM 57.4 °F 54.7 °F 91% 30.03 in 4.0 mi NE 9.2 mph - N/A   Overcast
9:15 AM 59.4 °F 56.5 °F 90% 30.03 in 5.0 mi NE 9.2 mph - N/A   Overcast
9:35 AM 59.5 °F 56.5 °F 90% 30.03 in 5.0 mi ENE 8.1 mph - N/A   Overcast
9:55 AM 59.5 °F 56.3 °F 89% 30.02 in 4.0 mi ENE 9.2 mph - N/A   Overcast
10:15 AM 59.5 °F 56.5 °F 90% 30.03 in 3.0 mi ENE 6.9 mph - N/A   Overcast
10:35 AM 61.3 °F 57.9 °F 89% 30.03 in 4.0 mi NE 6.9 mph - N/A   Overcast
10:55 AM 62.1 °F 58.5 °F 88% 30.03 in 4.0 mi ENE 8.1 mph - N/A   Overcast
11:15 AM 62.1 °F 58.3 °F 87% 30.02 in 4.0 mi NE 9.2 mph - N/A   Overcast
11:35 AM 62.1 °F 58.1 °F 87% 30.03 in 4.0 mi NE 10.4 mph - N/A   Overcast
11:55 AM 62.1 °F 58.1 °F 87% 30.03 in 4.0 mi NNE 11.5 mph - N/A   Overcast
12:15 PM 62.1 °F 58.3 °F 87% 30.04 in 4.0 mi NE 9.2 mph - N/A   Overcast
12:35 PM 62.1 °F 58.3 °F 87% 30.03 in 5.0 mi NE 12.7 mph - N/A   Overcast
12:55 PM 62.1 °F 57.7 °F 86% 30.03 in 5.0 mi ENE 8.1 mph - N/A   Overcast
1:15 PM 62.1 °F 57.2 °F 84% 30.03 in 5.0 mi NE 10.4 mph - N/A   Haze
1:35 PM 63.1 °F 57.7 °F 83% 30.03 in 5.0 mi NE 10.4 mph - N/A   Haze
1:55 PM 64.2 °F 58.1 °F 80% 30.03 in 5.0 mi NE 10.4 mph 17.3 mph N/A   Haze
2:15 PM 64.9 °F 57.9 °F 78% 30.02 in 7.0 mi ENE 10.4 mph - N/A   Overcast
2:35 PM 66.7 °F 58.8 °F 76% 30.01 in 7.0 mi ENE 11.5 mph 16.1 mph N/A   Mostly Cloudy
2:55 PM 67.5 °F 58.8 °F 74% 30.01 in 10.0 mi NE 11.5 mph - N/A   Scattered Clouds
3:15 PM 68.0 °F 59.0 °F 73% 30.00 in 10.0 mi ENE 11.5 mph 17.3 mph N/A   Scattered Clouds
3:35 PM 68.0 °F 59.0 °F 73% 30.00 in 7.0 mi ENE 11.5 mph 17.3 mph N/A   Scattered Clouds
3:55 PM 68.0 °F 58.6 °F 72% 30.01 in 7.0 mi ENE 12.7 mph 21.9 mph N/A   Scattered Clouds
4:15 PM 67.8 °F 58.5 °F 72% 30.02 in 10.0 mi ENE 11.5 mph - N/A   Scattered Clouds
4:35 PM 66.6 °F 58.3 °F 75% 30.02 in 10.0 mi ENE 10.4 mph - N/A   Overcast
4:55 PM 65.5 °F 57.4 °F 75% 30.02 in 10.0 mi NE 13.8 mph - N/A   Overcast
5:15 PM 64.9 °F 57.4 °F 76% 30.02 in 7.0 mi ENE 11.5 mph 17.3 mph N/A   Overcast
5:35 PM 64.6 °F 57.6 °F 78% 30.01 in 7.0 mi NE 15.0 mph 18.4 mph N/A   Overcast
5:55 PM 63.5 °F 56.8 °F 79% 30.03 in 5.0 mi NE 12.7 mph - N/A   Haze
6:15 PM 62.1 °F 56.3 °F 81% 30.04 in 5.0 mi NE 10.4 mph - N/A   Haze
6:35 PM 62.1 °F 56.5 °F 82% 30.04 in 7.0 mi NE 11.5 mph - N/A   Overcast
6:55 PM 62.1 °F 56.8 °F 83% 30.05 in 7.0 mi NE 12.7 mph - N/A   Overcast
7:15 PM 62.1 °F 56.8 °F 83% 30.05 in 7.0 mi NE 11.5 mph - N/A   Overcast
7:35 PM 62.1 °F 56.8 °F 83% 30.05 in 7.0 mi NNE 11.5 mph - N/A   Overcast
7:55 PM 60.6 °F 55.8 °F 84% 30.05 in 10.0 mi NE 16.1 mph - N/A   Overcast
8:15 PM 59.9 °F 54.7 °F 83% 30.04 in 10.0 mi ENE 13.8 mph - N/A   Overcast
8:35 PM 59.5 °F 54.5 °F 83% 30.04 in 10.0 mi ENE 17.3 mph 21.9 mph N/A   Overcast
8:55 PM 59.5 °F 54.7 °F 84% 30.04 in 10.0 mi ENE 12.7 mph - N/A   Overcast
9:15 PM 59.0 °F 54.7 °F 86% 30.05 in 10.0 mi ENE 10.4 mph - N/A   Overcast
9:35 PM 57.2 °F 53.4 °F 87% 30.06 in 10.0 mi NE 10.4 mph - N/A   Overcast
9:55 PM 57.2 °F 53.2 °F 87% 30.06 in 10.0 mi NE 11.5 mph - N/A   Overcast
10:15 PM 57.2 °F 53.2 °F 87% 30.06 in 10.0 mi NE 9.2 mph - N/A   Overcast
10:35 PM 57.2 °F 53.6 °F 88% 30.06 in 10.0 mi NE 15.0 mph - N/A   Overcast
10:55 PM 57.2 °F 53.8 °F 88% 30.05 in 7.0 mi ENE 15.0 mph - N/A   Overcast
11:15 PM 57.2 °F 53.8 °F 88% 30.04 in 7.0 mi ENE 13.8 mph - N/A   Overcast
11:35 PM 55.9 °F 52.9 °F 89% 30.04 in 7.0 mi ENE 11.5 mph 17.3 mph N/A   Overcast
11:55 PM 54.5 °F 51.8 °F 91% 30.03 in 7.0 mi ENE 12.7 mph 17.3 mph N/A   Overcast